Back to catalog

HULIANWANG DIGUI-31

AliveCommunicationsPO
NORAD 64284·PAYLOAD·🇨🇳 China

Launched Jun 5, 2025 from Taiyuan Satellite Launch Center

Loading…

Next Passes (next 24 hours)

TLE

FreshSource: Space-Track

Epoch: Sep 14, 2026, 12:49 UTC

1 64284U 25121B   26257.53411355  .00000031  00000-0  39245-4 0  9995
2 64284  86.5069 343.5177 0001613 106.9359 253.1952 13.24411856 61980

Track HULIANWANG DIGUI-31 in real time with AllMySat

Download on the App Store